Regional Weather Roundup
Issued by NWS

Home | Current Version | Previous Version | Graphics & Text | Print | Product List | Glossary Off
Versions: 1 2 3 4 5 6 7 8 9 10 11 12 13 14 15 16 17 18 19 20 21 22 23 24 25 26 27 28 29 30 31 32 33 34 35 36 37 38 39 40 41 42 43 44 45 46 47 48 49 50

000
ASUS43 KDMX 260906
RWRIA

WEATHER ROUNDUP FOR IOWA
NATIONAL WEATHER SERVICE DES MOINES IA
400 AM CDT WED APR 26 2017

NOTE: "FAIR" INDICATES FEW OR NO CLOUDS BELOW 12,000 FEET WITH NO
SIGNIFICANT WEATHER AND/OR OBSTRUCTIONS TO VISIBILITY.

* - THESE STATIONS ARE NOT NWS STATIONS...THUS NOT UNDER NWS
QUALITY CONTROL.  THEY ALSO DO NOT REPORT WEATHER SUCH
AS PRECIPITATION OR FOG.

IAZ001>003-012>014-020>022-031>034-043>046-261000-
   NORTHWEST IOWA

CITY           SKY/WX    TMP DP  RH WIND       PRES   REMARKS
CARROLL *      CLOUDY    41  41 100 NW23      29.51F
CHEROKEE *     LGT RAIN  37  37 100 NW15G25   29.55F WCI  28
DENISON *      MIX PCPN  37  37 100 NW14G21   29.57S WCI  29
LE MARS *      CLOUDY    37  36  93 NW20G28   29.61R WCI  27
ORANGE CITY *  CLOUDY    36  36 100 NW16G22   29.58R WCI  26
SHELDON *      CLOUDY    37  36  93 NW16G26   29.55R FOG     WCI  28
SIOUX CITY     CLOUDY    36  35  96 NW21G31   29.59F WCI  25
SPENCER        CLOUDY    39  38  96 NW23G29   29.52R WCI  28
STORM LAKE *   CLOUDY    37  37 100 NW18G25   29.52F WCI  27
$$

IAZ055>058-069>071-079>083-090>094-261000-
   SOUTHWEST IOWA

CITY           SKY/WX    TMP DP  RH WIND       PRES   REMARKS
ATLANTIC *     CLOUDY    41  39  93 NW15G24   29.54R
AUDUBON *      CLOUDY    39  37  93 NW15G22   29.53S WCI  31
CLARINDA *       N/A     43  39  87 NW17      29.56S
COUNCIL BLFS * CLOUDY    37  37 100 NW18G31   29.58R WCI  27
CRESTON *      CLOUDY    43  41  93 NW20G26   29.51R
HARLAN  *      CLOUDY    39  39 100 NW16G28   29.59R WCI  30
LAMONI         LGT RAIN  45  43  93 NW14      29.49R
RED OAK *      CLOUDY    41  39  93 NW16G24   29.55S
SHENANDOAH *   CLOUDY    41  39  93 NW13      29.58R
$$

IAZ047>049-059>061-072>074-084-261000-
   CENTRAL IOWA

CITY           SKY/WX    TMP DP  RH WIND       PRES   REMARKS
AMES           CLOUDY    46  45  96 NW18G26   29.44F
ANKENY *       CLOUDY    46  45  93 NW14      29.47R
BOONE *        CLOUDY    45  45 100 NW15G23   29.44F
CHARITON *     RAIN      46  45  93 NW9       29.46R
DES MOINES     CLOUDY    46  44  93 NW16      29.48R
GRINNELL*      CLOUDY    49  47  93 W8        29.45R
KNOXVILLE *    DRIZZLE   48  46  93 W10       29.44S
MARSHALLTOWN   CLOUDY    48  47  96 W12       29.42R
NEWTON *       CLOUDY    48  46  93 W10       29.43S
PELLA *        RAIN      48  47  96 W7        29.46S
PERRY *        CLOUDY    44  41  89 NW14G20   29.48F
$$

IAZ004>006-015-016-023>025-035-036-261000-
   NORTH CENTRAL IOWA

CITY           SKY/WX    TMP DP  RH WIND       PRES   REMARKS
ALGONA *       LGT RAIN  43  43 100 NW14G21   29.46S
CLARION *      CLOUDY    45  45 100 NW13G21   29.44F
ESTHERVILLE    CLOUDY    40  40 100 NW21      29.48F FOG     WCI  30
FORT DODGE *   CLOUDY    43  37  81 W9G16     29.48F
MASON CITY     CLOUDY    48  47  96 NW13      29.42F
FOREST CITY *  DRIZZLE   45  45 100 NW9       29.42F
WEBSTER CITY * CLOUDY    45  43  93 NW20      29.44F
IOWA FALLS *   CLOUDY    48  46  91 W15       29.43F
$$

IAZ007>011-017>019-026>030-037>042-050>054-066-261000-
   NORTHEAST IOWA

CITY           SKY/WX    TMP DP  RH WIND       PRES   REMARKS
CEDAR RAPIDS   CLOUDY    57  57 100 W6        29.37F
CHARLES CITY * CLOUDY    54  54 100 W3        29.39S
CLINTON *      CLOUDY    61  57  87 S5        29.40F
DECORAH *      CLOUDY    57  55  94 SE6       29.37F
DUBUQUE        CLOUDY    58  55  90 S9        29.40S
MONTICELLO *   MOCLDY    59  55  88 S6        29.39R
OELWEIN *      CLOUDY    59  59 100 S7        29.38F
WATERLOO       LGT RAIN  55  52  89 VRB5      29.37F
$$

IAZ064-065-067-068-078-261000-
   EAST CENTRAL IOWA

CITY           SKY/WX    TMP DP  RH WIND       PRES   REMARKS
DAVENPORT      LGT RAIN  60  56  86 S8        29.40F
IOWA CITY      CLOUDY    61  53  75 SW3       29.40F
MT. PLEASANT * DRIZZLE   60  60 100 S7        29.40F
MUSCATINE *    CLOUDY    61  57  88 W3        29.38F
QUAD CITIES    CLOUDY    65  53  65 SW5       29.40S
$$

IAZ062-063-075>077-085>089-095>099-261000-
   SOUTHEAST IOWA

CITY           SKY/WX    TMP DP  RH WIND       PRES   REMARKS
BURLINGTON     CLOUDY    62  59  90 SW10      29.41F
FAIRFIELD *    CLOUDY    55  50  82 W12       29.43R
FORT MADISON * RAIN      63  59  88 S5        29.41S
KEOKUK *       LGT RAIN  63  61  94 VRB5      29.37F
OSKALOOSA *    CLOUDY    50  48  91 W14       29.44S
CENTERVILLE *  MOCLDY    48  46  93 CALM      29.45F
OTTUMWA        CLOUDY    52  50  93 W6        29.44R
WASHINGTON *   CLOUDY    57  54  88 W8        29.42S
$$

ABBREVIATIONS USED IN REMARKS
   TC - TEMPERATURES IN CELSIUS
  WCI - WIND CHILL INDEX
   HX - HEAT INDEX
  VSB - VISIBILITY
$$





USA.gov is the U.S. government's official web portal to all federal, state and local government web resources and services.